Weather History for KLPR - October, 2013

Change the Weather History Date:

Saturday, October 26, 2013

  Actual Average (KCLE) Record (KCLE)
Temperature  
Mean Temperature 42 °F 51 °F  
Max Temperature 48 °F 59 °F 81 °F (1963)
Min Temperature 35 °F 43 °F 24 °F (1887)
Degree Days  
Heating Degree Days 24 14  
Month to date heating degree days 280  
Since 1 July heating degree days 383  
Cooling Degree Days 0 0  
Month to date cooling degree days 10  
Year to date cooling degree days 814  
Moisture  
Dew Point 30 °F    
Average Humidity 62    
Maximum Humidity 89    
Minimum Humidity 46    
Precipitation  
Precipitation 0.07 in 0.10 in 0.75 in (2012)
Month to date precipitation 2.57  
Year to date precipitation 31.92  
Snow  
Snow 0.00 in 0.00 in - ()
Month to date snowfall 0.1  
Since 1 July snowfall 0.1  
Since 1 September snowfall 0.1  
Snow Depth -    
Sea Level Pressure  
Sea Level Pressure 29.99 in    
Wind  
Wind Speed 15 mph (WSW)    
Max Wind Speed 30 mph    
Max Gust Speed 39 mph    
Visibility 10 miles    
Events Rain    
T = Trace of Precipitation, MM = Missing Value Source: NWS Daily Summary

Daily Weather History Graph

Daily Weather History Graph

Search for Another Location

Airport or City:

Trip Planner

Search our weather history database for the weather conditions in past years. The results will help you decide how hot, cold, wet, or windy it might be!

Date:

Astronomy

Oct. 26, 2013 Rise Set
Actual Time 7:53 AM EDT 6:31 PM EDT
Civil Twilight 7:24 AM EDT 6:59 PM EDT
Nautical Twilight 6:52 AM EDT 7:32 PM EDT
Astronomical Twilight 6:20 AM EDT 8:04 PM EDT
Moon No Moon Rise 2:09 PM EDT (10/26)
Length of Visible Light 11h 34m
Length of Day
10h 37m
Waning Gibbous, 53% of the Moon is Illuminated
Oct 26
Waning Gibbous
Oct 26
Last Quarter
Nov 3
New
Nov 10
First Quarter
Nov 17
Full

Hourly Weather History & Observations

Time (EDT) Temp. Windchill Dew Point Humidity Pressure Visibility Wind Dir Wind Speed Gust Speed Precip Events Conditions
12:53 AM 35.1 °F 28.6 °F 26.1 °F 70% 30.21 in 10.0 mi SW 8.1 mph - N/A   Clear
1:53 AM 37.0 °F 29.8 °F 26.1 °F 65% 30.19 in 10.0 mi SSW 10.4 mph - N/A   Clear
2:53 AM 37.0 °F 28.9 °F 26.1 °F 65% 30.16 in 10.0 mi SW 12.7 mph - N/A   Partly Cloudy
3:53 AM 37.9 °F 30.0 °F 25.0 °F 60% 30.12 in 10.0 mi SSW 12.7 mph - N/A   Clear
4:53 AM 37.9 °F 29.6 °F 25.0 °F 60% 30.11 in 10.0 mi SW 13.8 mph - N/A   Clear
5:53 AM 37.9 °F 27.9 °F 26.1 °F 62% 30.07 in 10.0 mi SSW 19.6 mph 26.5 mph N/A   Clear
6:53 AM 39.9 °F 30.5 °F 25.0 °F 55% 30.05 in 10.0 mi SW 19.6 mph 24.2 mph N/A   Mostly Cloudy
7:53 AM 39.9 °F 30.5 °F 25.0 °F 55% 30.03 in 10.0 mi SW 19.6 mph 29.9 mph N/A   Mostly Cloudy
8:53 AM 41.0 °F 30.2 °F 25.0 °F 53% 30.01 in 10.0 mi SW 27.6 mph 34.5 mph N/A   Overcast
9:53 AM 43.0 °F 34.2 °F 26.1 °F 51% 29.98 in 10.0 mi SW 20.7 mph 32.2 mph N/A   Overcast
10:53 AM 43.0 °F 33.8 °F 26.1 °F 51% 29.96 in 10.0 mi SW 23.0 mph 33.4 mph N/A   Overcast
11:53 AM 44.1 °F 34.0 °F 26.1 °F 49% 29.91 in 10.0 mi SW 29.9 mph 39.1 mph N/A   Overcast
12:53 PM 46.0 °F 38.0 °F 27.0 °F 47% 29.90 in 10.0 mi SW 21.9 mph 34.5 mph N/A   Overcast
1:53 PM 48.0 °F - 28.0 °F 46% 29.89 in 10.0 mi WSW 18.4 mph 27.6 mph N/A   Overcast
2:53 PM 46.9 °F - 28.0 °F 48% 29.88 in 10.0 mi WSW 17.3 mph 24.2 mph N/A   Overcast
3:53 PM 48.0 °F - 30.0 °F 50% 29.87 in 10.0 mi WSW 19.6 mph 24.2 mph N/A   Overcast
4:53 PM 48.0 °F - 30.9 °F 52% 29.89 in 10.0 mi WSW 13.8 mph - N/A   Overcast
5:53 PM 48.0 °F - 32.0 °F 54% 29.90 in 10.0 mi WSW 16.1 mph - N/A   Overcast
6:53 PM 46.0 °F 39.6 °F 33.1 °F 61% 29.91 in 10.0 mi WSW 15.0 mph 23.0 mph N/A   Mostly Cloudy
7:53 PM 46.0 °F 40.2 °F 34.0 °F 63% 29.92 in 10.0 mi WSW 12.7 mph - N/A   Overcast
8:53 PM 44.1 °F 38.1 °F 39.0 °F 82% 29.98 in 4.0 mi NNW 11.5 mph 26.5 mph 0.04 in Rain Heavy Rain
9:00 PM 44.6 °F 39.2 °F 37.4 °F 76% 29.96 in 4.0 mi NW 10.4 mph - 0.02 in Rain Rain
9:21 PM 44.6 °F 41.4 °F 39.2 °F 81% 29.96 in 9.0 mi West 5.8 mph - 0.03 in Rain Light Rain
9:53 PM 41.0 °F 36.4 °F 37.9 °F 89% 29.99 in 10.0 mi WSW 6.9 mph - 0.03 in   Mostly Cloudy
10:53 PM 39.0 °F 33.4 °F 36.0 °F 89% 29.99 in 10.0 mi WSW 8.1 mph - N/A   Clear
11:53 PM 39.9 °F 34.5 °F 36.0 °F 86% 30.01 in 10.0 mi WSW 8.1 mph - N/A   Clear